Location: Castelnau
(43.6639°N, 0.8431°W)
Time: 19:36:21
(UTC+00:00)

Cosmos 1140 Rocket - Pass Details

Date: 13 January 2026
Orbit: 739 x 763 km, 74.1° (Epoch: 10 February)

Event Time Altitude Azimuth Distance (km) Brightness Sun altitude
Rises 06:15:42 0° 195° (SSW) 3,158 6.7 -14.0°
Reaches altitude 10° 06:18:02 10° 194° (SSW) 2,240 6.0 -13.6°
Maximum altitude 06:23:06 80° 109° (ESE) 758 3.6 -12.7°
Drops below altitude 10° 06:28:14 10° 23° (NNE) 2,264 6.0 -11.8°
Sets 06:30:36 0° 22° (NNE) 3,194 6.8 -11.4°
